When you browse on this site, cookies collect data to enhance your experience and personalize the content and advertising you see.
Visit our Privacy Policy to learn more. By continuing to use the site, you agree to this use of cookies and data.
  • In Portugal
  • List of Countries
  • For 7 days
  • Water Temperature
  • Satellite Maps
  • Weather Map
  • Weather Widgets
  • user-avatar
    Login

    Hourly Weather Malanje

    Today, 17 December, Monday

    Time Temperature Precipitation Wind Pressure Humidity
    00:00 +19°C° 0 mm 1 mps 666 mmHg 92%
    01:00 +19°C° 0 mm 1 mps 666 mmHg 93%
    02:00 +19°C° 0.1 mm 1 mps 666 mmHg 93%
    03:00 +19°C° 0.1 mm 1 mps 666 mmHg 93%
    04:00 +19°C° 0.1 mm 1 mps 666 mmHg 94%
    05:00 +19°C° 0 mm 2 mps 666 mmHg 94%
    06:00 +19°C° 0 mm 2 mps 667 mmHg 94%
    07:00 +19°C° 0 mm 2 mps 667 mmHg 94%
    08:00 +20°C° 0.2 mm 2 mps 667 mmHg 91%
    09:00 +23°C° 0.2 mm 2 mps 668 mmHg 87%
    10:00 +24°C° 0.2 mm 2 mps 668 mmHg 84%
    11:00 +25°C° 0.3 mm 3 mps 667 mmHg 80%
    12:00 +26°C° 0.3 mm 3 mps 667 mmHg 75%
    13:00 +27°C° 0.3 mm 3 mps 666 mmHg 71%
    14:00 +26°C° 0.6 mm 3 mps 666 mmHg 75%
    15:00 +26°C° 0.6 mm 2 mps 665 mmHg 79%
    16:00 +25°C° 0.6 mm 2 mps 665 mmHg 83%
    17:00 +24°C° 0.6 mm 2 mps 665 mmHg 87%
    18:00 +23°C° 0.6 mm 1 mps 665 mmHg 91%
    19:00 +21°C° 0.6 mm 1 mps 665 mmHg 94%
    20:00 +21°C° 0.2 mm 1 mps 665 mmHg 95%
    21:00 +21°C° 0.2 mm 1 mps 666 mmHg 95%
    22:00 +20°C° 0.2 mm 1 mps 666 mmHg 95%
    23:00 +20°C° 0.1 mm 1 mps 666 mmHg 96%

    Tomorrow, 18 December, Tuesday

    Time Temperature Precipitation Wind Pressure Humidity
    00:00 +20°C° 0.1 mm 1 mps 666 mmHg 96%
    01:00 +20°C° 0.1 mm 1 mps 666 mmHg 96%
    02:00 +20°C° 0.1 mm 1 mps 666 mmHg 96%
    03:00 +20°C° 0.1 mm 1 mps 665 mmHg 96%
    04:00 +19°C° 0.1 mm 1 mps 665 mmHg 97%
    05:00 +20°C° 0.2 mm 1 mps 666 mmHg 97%
    06:00 +20°C° 0.2 mm 1 mps 666 mmHg 97%
    07:00 +20°C° 0.2 mm 1 mps 667 mmHg 96%
    08:00 +21°C° 0.1 mm 1 mps 667 mmHg 93%
    09:00 +21°C° 0.1 mm 2 mps 667 mmHg 90%
    10:00 +23°C° 0.1 mm 2 mps 667 mmHg 87%
    11:00 +24°C° 0.1 mm 2 mps 667 mmHg 81%
    12:00 +25°C° 0.1 mm 3 mps 667 mmHg 76%
    13:00 +26°C° 0.1 mm 3 mps 667 mmHg 70%
    14:00 +26°C° 0.2 mm 3 mps 666 mmHg 72%
    15:00 +26°C° 0.2 mm 3 mps 665 mmHg 75%
    16:00 +26°C° 0.2 mm 3 mps 665 mmHg 77%
    17:00 +24°C° 0.6 mm 2 mps 665 mmHg 82%
    18:00 +23°C° 0.6 mm 2 mps 665 mmHg 87%
    19:00 +21°C° 0.6 mm 2 mps 665 mmHg 92%
    20:00 +20°C° 1.3 mm 2 mps 666 mmHg 94%
    21:00 +20°C° 1.3 mm 2 mps 666 mmHg 95%
    22:00 +19°C° 1.3 mm 2 mps 667 mmHg 97%
    23:00 +19°C° 0.4 mm 2 mps 666 mmHg 97%

    Day after tomorrow, 19 December, Wednesday

    Time Temperature Precipitation Wind Pressure Humidity
    00:00 +19°C° 0.4 mm 2 mps 666 mmHg 98%
    01:00 +19°C° 0.4 mm 2 mps 666 mmHg 98%
    02:00 +19°C° 0.1 mm 2 mps 665 mmHg 98%
    03:00 +19°C° 0.1 mm 2 mps 665 mmHg 98%
    04:00 +18°C° 0.1 mm 2 mps 665 mmHg 98%
    05:00 +19°C° 0.1 mm 2 mps 665 mmHg 98%
    06:00 +19°C° 0.1 mm 2 mps 666 mmHg 97%
    07:00 +19°C° 0.1 mm 2 mps 666 mmHg 97%
    08:00 +20°C° 0.3 mm 2 mps 667 mmHg 93%
    09:00 +21°C° 0.3 mm 2 mps 667 mmHg 89%
    10:00 +23°C° 0.3 mm 2 mps 667 mmHg 86%
    11:00 +24°C° 0.8 mm 2 mps 667 mmHg 85%
    12:00 +24°C° 0.8 mm 2 mps 666 mmHg 84%
    13:00 +25°C° 0.8 mm 2 mps 666 mmHg 83%
    14:00 +24°C° 0.6 mm 2 mps 665 mmHg 85%
    15:00 +24°C° 0.6 mm 2 mps 665 mmHg 86%
    16:00 +24°C° 0.6 mm 2 mps 664 mmHg 88%
    17:00 +23°C° 0.8 mm 2 mps 664 mmHg 91%
    18:00 +22°C° 0.8 mm 1 mps 665 mmHg 93%
    19:00 +21°C° 0.8 mm 1 mps 665 mmHg 96%
    20:00 +21°C° 0.9 mm 1 mps 665 mmHg 96%
    21:00 +20°C° 0.9 mm 1 mps 666 mmHg 97%
    22:00 +20°C° 0.9 mm 1 mps 666 mmHg 97%
    23:00 +19°C° 0.6 mm 2 mps 666 mmHg 98%

    20 December, Thursday

    Time Temperature Precipitation Wind Pressure Humidity
    00:00 +19°C° 0.6 mm 2 mps 665 mmHg 98%
    01:00 +19°C° 0.6 mm 2 mps 665 mmHg 98%
    02:00 +19°C° 0.5 mm 2 mps 665 mmHg 98%
    03:00 +19°C° 0.5 mm 2 mps 665 mmHg 98%
    04:00 +19°C° 0.5 mm 2 mps 665 mmHg 98%
    05:00 +18°C° 0.7 mm 2 mps 665 mmHg 98%
    06:00 +18°C° 0.7 mm 2 mps 665 mmHg 98%
    07:00 +18°C° 0.7 mm 2 mps 666 mmHg 97%
    08:00 +19°C° 0.4 mm 2 mps 666 mmHg 96%
    09:00 +19°C° 0.4 mm 2 mps 666 mmHg 95%
    10:00 +20°C° 0.4 mm 2 mps 667 mmHg 93%
    11:00 +20°C° 0.3 mm 2 mps 666 mmHg 91%
    12:00 +21°C° 0.3 mm 2 mps 666 mmHg 88%
    13:00 +21°C° 0.3 mm 3 mps 665 mmHg 85%
    14:00 +22°C° 0.1 mm 3 mps 665 mmHg 84%
    15:00 +22°C° 0.1 mm 3 mps 665 mmHg 82%
    16:00 +24°C° 0.1 mm 3 mps 664 mmHg 80%
    17:00 +23°C° 0.2 mm 2 mps 665 mmHg 85%
    18:00 +20°C° 0.2 mm 2 mps 665 mmHg 90%
    19:00 +19°C° 0.2 mm 2 mps 665 mmHg 95%
    20:00 +19°C° 0 mm 2 mps 665 mmHg 95%
    21:00 +19°C° 0 mm 2 mps 666 mmHg 96%
    22:00 +18°C° 0 mm 2 mps 666 mmHg 97%
    23:00 +18°C° 0 mm 2 mps 666 mmHg 97%

    21 December, Friday

    Time Temperature Precipitation Wind Pressure Humidity
    00:00 +18°C° 0 mm 2 mps 665 mmHg 97%
    01:00 +18°C° 0 mm 2 mps 665 mmHg 98%
    02:00 +18°C° 0 mm 2 mps 665 mmHg 97%
    03:00 +18°C° 0 mm 2 mps 665 mmHg 97%
    04:00 +18°C° 0 mm 2 mps 665 mmHg 96%
    05:00 +19°C° 0.1 mm 2 mps 665 mmHg 96%
    06:00 +19°C° 0.1 mm 2 mps 666 mmHg 95%
    07:00 +19°C° 0.1 mm 2 mps 666 mmHg 95%
    08:00 +20°C° 0 mm 2 mps 666 mmHg 87%
    09:00 +22°C° 0 mm 3 mps 666 mmHg 79%
    10:00 +24°C° 0 mm 3 mps 667 mmHg 71%
    11:00 +25°C° 0.2 mm 3 mps 666 mmHg 70%
    12:00 +26°C° 0.2 mm 3 mps 665 mmHg 69%
    13:00 +27°C° 0.2 mm 3 mps 665 mmHg 68%
    14:00 +26°C° 0.5 mm 3 mps 664 mmHg 71%
    15:00 +26°C° 0.5 mm 3 mps 664 mmHg 74%
    16:00 +26°C° 0.5 mm 3 mps 664 mmHg 76%
    17:00 +24°C° 0.3 mm 2 mps 664 mmHg 80%
    18:00 +23°C° 0.3 mm 2 mps 664 mmHg 84%
    19:00 +20°C° 0.3 mm 2 mps 664 mmHg 88%
    20:00 +19°C° 0.1 mm 2 mps 664 mmHg 90%
    21:00 +19°C° 0.1 mm 2 mps 664 mmHg 91%
    22:00 +18°C° 0.1 mm 2 mps 665 mmHg 92%
    23:00 +18°C° 0.2 mm 2 mps 664 mmHg 94%

    22 December, Saturday

    Time Temperature Precipitation Wind Pressure Humidity
    00:00 +18°C° 0.2 mm 2 mps 664 mmHg 95%
    01:00 +18°C° 0.2 mm 2 mps 664 mmHg 97%
    02:00 +18°C° 0.1 mm 2 mps 664 mmHg 97%
    03:00 +18°C° 0.1 mm 2 mps 664 mmHg 97%
    04:00 +18°C° 0.1 mm 2 mps 664 mmHg 97%
    05:00 +18°C° 0 mm 2 mps 665 mmHg 97%
    06:00 +18°C° 0 mm 2 mps 665 mmHg 96%
    07:00 +18°C° 0 mm 2 mps 665 mmHg 96%
    08:00 +19°C° 0 mm 2 mps 666 mmHg 91%
    09:00 +20°C° 0 mm 2 mps 666 mmHg 86%
    10:00 +21°C° 0 mm 2 mps 666 mmHg 82%
    11:00 +22°C° 0 mm 3 mps 665 mmHg 75%
    12:00 +25°C° 0 mm 3 mps 665 mmHg 69%
    13:00 +27°C° 0 mm 3 mps 665 mmHg 62%
    14:00 +26°C° 0.1 mm 3 mps 664 mmHg 65%
    15:00 +26°C° 0.1 mm 3 mps 664 mmHg 68%
    16:00 +26°C° 0.1 mm 3 mps 663 mmHg 70%
    17:00 +24°C° 0.1 mm 2 mps 663 mmHg 75%
    18:00 +23°C° 0.1 mm 2 mps 663 mmHg 81%
    19:00 +20°C° 0.1 mm 2 mps 664 mmHg 86%
    20:00 +19°C° 0 mm 2 mps 664 mmHg 85%
    21:00 +19°C° 0 mm 2 mps 664 mmHg 85%
    22:00 +18°C° 0 mm 2 mps 664 mmHg 85%
    23:00 +18°C° 0 mm 2 mps 664 mmHg 84%
    Show more